SCP
0 0 0 0 0 0 0 0 0 0 0 0 0 0 0 0 0 0 0 0 0 0 0 0 0 0 0 0 0 0 0 0 0 0 0 0 0 0 0 0 0 0 0
0 0 0 0 0 0 0 0 0 0 0 0 0 0 0 0 0 0 0 0 0 0 0 0 0 0 0 0 0 0 0 0 0 0 0 0 0 0 0 0 0 0 0
0 0 0 0 0 0 0 0 0 0 0 0 0 0 0 0 0 0 0 0 0 0 0 0 0 0 0 0 0 0 0 0 0 0 0 0 0 0 0 0 0 0 0
0 0 0 0 0 0 0 0 0 0 0 0 0 0 0 0 0 0 0 0 0 0 0 0 0 0 0 0 0 0 0 0 0 0 0 0 0 0 0 0 0 0 0
0 0 0 0 0 0 0 0 0 0 0 0 0 0 0 0 0 0 0 0 0 0 0 0 0 0 0 0 0 0 0 0 0 0 0 0 0 0 0 0 0 0 0
0 0 0 0 0 0 0 0 0 0 0 0 0 0 0 0 0 0 0 0 0 0 0 0 0 0 0 0 0 0 0 0 0 0 0 0 0 0 0 0 0 0 0
0 0 0 0 0 0 0 0 0 0 0 0 0 0 0 0 0 0 0 0 0 0 0 0 0 0 0 0 0 0 0 0 0 0 0 0 0 0 0 0 0 0 0
0 0 0 0 0 0 0 0 0 0 0 0 0 0 0 0 0 0 0 0 0 0 0 0 0 0 0 0 0 0 0 0 0 0 0 0 0 0 0 0 0 0 0
0 0 0 0 0 0 0 0 0 0 0 0 0 0 0 0 0 0 0 0 0 0 0 0 0 0 0 0 0 0 0 0 0 0 0 0 0 0 0 0 0 0 0
0 0 0 0 0 0 0 0 0 0 0 0 0 0 0 0 0 0 0 0 0 0 0 0 0 0 0 0 0 0 0 0 0 0 0 0 0 0 0 0 0 0 0
0 0 0 0 0 0 0 0 0 0 0 0 0 0 0 0 0 0 0 0 0 0 0 0 0 0 0 0 0 0 0 0 0 0 0 0 0 0 0 0 0 0 0
0 0 0 0 0 0 0 0 0 0 0 0 0 0 0 0 0 0 0 0 0 0 0 0 0 0 0 0 0 0 0 0 0 0 0 0 0 0 0 0 0 0 0
0 0 0 0 0 0 0 0 0 0 0 0 0 0 0 0 0 0 0 0 0 0 0 0 0 0 0 0 0 0 0 0 0 0 0 0 0 0 0 0 0 0 0
0 0 0 0 0 0 0 0 0 0 0 0 0 0 0 0 0 0 0 0 0 0 0 0 0 0 0 0 0 0 0 0 0 0 0 0 0 0 0 0 0 0 0
0 0 0 0 0 0 0 0 0 0 0 0 0 0 0 0 0 0 0 0 0 0 0 0 0 0 0 0 0 0 0 0 0 0 0 0 0 0 0 0 0 0 0
0 0 0 0 0 0 0 0 0 0 0 0 0 0 0 0 0 0 0 0 0 0 0 0 0 0 0 0 0 0 0 0 0 0 0 0 0 0 0 0 0 0 0
0 0 0 0 0 0 0 0 0 0 0 0 0 0 0 0 0 0 0 0 0 0 0 0 0 0 0 0 0 0 0 0 0 0 0 0 0 0 0 0 0 0 0
0 0 0 0 0 0 0 0 0 0 0 0 0 0 0 0 0 0 0 0 0 0 0 0 0 0 0 0 0 0 0 0 0 0 0 0 0 0 0 0 0 0 0
0 0 0 0 0 0 0 0 0 0 0 0 0 0 0 0 0 0 0 0 0 0 0 0 0 0 0 0 0 0 0 0 0 0 0 0 0 0 0 0 0 0 0
0 0 0 0 0 0 0 0 0 0 0 0 0 0 0 0 0 0 0 0 0 0 0 0 0 0 0 0 0 0 0 0 0 0 0 0 0 0 0 0 0 0 0
0 0 0 0 0 0 0 0 0 0 0 0 0 0 0 0 0 0 0 0 0 0 0 0 0 0 0 0 0 0 0 0 0 0 0 0 0 0 0 0 0 0 0
0 0 0 0 0 0 0 0 0 0 0 0 0 0 0 0 0 0 0 0 0 0 0 0 0 0 0 0 0 0 0 0 0 0 0 0 0 0 0 0 0 0 0
0 0 0 0 0 0 0 0 0 0 0 0 0 0 0 0 0 0 0 0 0 0 0 0 0 0 0 0 0 0 0 0 0 0 0 0 0 0 0 0 0 0 0
0 0 0 0 0 0 0 0 0 0 0 0 0 0 0 0 0 0 0 0 0 0 0 0 0 0 0 0 0 0 0 0 0 0 0 0 0 0 0 0 0 0 0
0 0 0 0 0 0 0 0 0 0 0 0 0 0 0 0 0 0 0 0 0 0 0 0 0 0 0 0 0 0 0 0 0 0 0 0 0 0 0 0 0 0 0
0 0 0 0 0 0 0 0 0 0 0 0 0 0 0 0 0 0 0 0 0 0 0 0 0 0 0 0 0 0 0 0 0 0 0 0 0 0 -0 0 0 0 0
Wind_Speed
7 6 6 5 5 5 5 4 4 3 3 3 2 2 2 2 2 2 3 4 4 5 5 5 7 6 5 5 5 5 6 6 11 9 5 6 8 10 11 10 10 9 11
7 7 7 6 6 5 5 4 4 4 3 3 2 2 3 3 3 4 5 5 5 6 6 6 7 6 7 6 5 6 7 7 9 14 8 6 8 9 11 11 11 10 8
8 8 7 6 6 5 5 4 4 3 3 2 3 3 4 4 4 5 5 6 6 7 7 7 8 7 8 7 7 7 7 8 8 11 11 7 7 8 9 9 11 9 10
8 8 7 7 6 5 5 4 4 3 3 3 3 4 5 5 5 6 6 6 7 7 8 8 8 8 9 8 8 8 8 9 9 10 11 9 7 7 7 7 8 6 8
9 8 7 6 5 5 4 4 3 3 4 4 4 4 5 4 5 6 6 7 7 8 8 8 9 11 14 12 10 8 8 8 8 9 10 9 8 6 6 6 10 8 8
9 8 6 6 5 4 4 4 3 4 4 4 4 5 6 5 10 14 11 6 7 7 8 8 9 11 15 20 22 21 18 12 10 10 10 11 10 8 8 8 9 11 10
8 7 6 6 5 4 4 3 4 4 4 4 5 5 7 9 15 16 17 9 6 7 8 8 8 9 15 9 15 21 19 23 22 15 13 13 12 10 10 12 11 12 12
8 7 6 5 5 4 3 4 4 3 4 5 6 6 7 9 16 17 18 10 7 7 8 9 9 9 10 12 11 11 11 12 15 12 11 13 13 12 12 14 14 13 11
7 6 6 5 4 4 4 5 4 3 4 5 6 6 7 10 16 18 19 7 7 8 8 9 10 10 17 22 15 12 12 11 16 22 23 22 24 24 19 10 8 9 10
6 5 5 4 4 4 5 4 3 4 5 5 6 6 7 9 15 18 19 6 7 8 7 9 16 17 20 23 13 10 13 12 9 11 14 16 14 14 19 11 7 9 9
5 4 3 3 4 4 4 3 4 4 5 5 7 7 7 10 14 18 19 8 7 8 8 6 7 19 23 24 21 12 16 17 10 9 8 7 6 6 7 7 7 7 9
4 3 3 3 3 2 3 4 4 4 5 6 7 8 6 8 12 14 19 19 17 10 8 6 9 21 24 24 18 17 23 20 7 6 6 6 6 6 6 6 7 8 8
3 2 2 2 3 3 3 4 4 4 4 6 6 7 7 6 8 18 20 22 22 13 9 17 21 24 22 14 16 22 18 7 6 7 8 7 6 6 6 5 6 7 7
2 2 2 3 3 3 3 4 4 5 5 6 7 8 8 7 6 6 8 10 15 13 11 15 21 21 16 15 14 10 6 6 8 8 7 6 5 5 6 5 5 5 5
2 3 3 3 4 4 4 5 6 6 7 8 7 7 9 9 11 18 14 9 7 9 11 8 6 5 5 5 6 6 5 6 7 6 7 7 7 7 6 4 4 4 5
2 3 3 3 4 4 5 6 10 12 17 19 19 17 13 18 23 24 24 24 24 24 16 7 6 6 7 7 7 7 6 7 7 7 7 7 7 7 6 5 5 5 5
4 4 3 4 4 5 5 6 8 9 14 17 19 20 20 22 24 24 24 24 24 22 11 6 7 7 7 7 7 7 7 7 6 7 7 7 7 7 6 6 5 5 5
4 6 5 4 5 5 6 6 7 8 9 8 11 17 21 22 23 23 24 21 12 10 6 7 8 7 7 7 7 7 7 6 6 7 7 7 6 7 7 6 5 5 5
4 4 4 5 5 6 6 7 7 9 10 10 8 9 16 19 21 22 20 10 9 8 7 8 8 7 7 7 7 7 7 7 8 7 7 7 6 7 7 6 6 9 7
4 9 9 5 5 6 6 7 8 8 9 9 9 8 8 10 9 9 8 7 8 9 8 8 7 7 7 6 7 7 7 8 8 7 7 6 6 6 7 7 6 5 5
4 7 12 8 6 7 7 8 8 9 9 10 9 11 18 12 9 9 8 7 8 8 8 8 7 7 7 6 6 7 9 8 7 7 7 6 6 6 6 6 6 6 5
5 5 6 7 7 7 8 8 9 9 10 11 10 11 20 12 9 9 9 8 7 7 7 7 7 7 7 7 7 8 9 8 8 7 7 7 6 6 6 6 6 5 5
5 7 7 8 8 12 12 8 8 9 10 10 11 11 10 9 9 9 9 8 7 7 6 7 8 8 6 7 7 8 9 9 8 7 8 8 7 7 6 7 7 6 6
6 8 9 9 9 9 9 10 9 10 10 11 11 11 10 9 9 10 10 8 7 7 7 7 9 10 12 10 8 8 8 9 9 8 10 10 9 8 7 7 8 8 7
7 8 9 9 9 9 10 10 10 10 11 11 11 11 10 10 10 10 9 8 9 9 10 10 8 10 12 13 12 11 16 21 20 13 10 9 10 10 9 9 8 8 8
7 8 9 8 8 9 10 11 11 11 11 11 11 11 10 10 10 10 9 9 9 9 10 9 10 12 13 12 14 18 22 23 22 22 13 9 10 9 9 9 10 9 9
Wind_Direction
158 153 147 149 148 146 152 163 165 166 170 177 190 207 236 254 255 250 257 262 260 265 263 256 258 257 254 251 243 240 241 242 270 278 255 265 268 275 284 282 282 280 283
159 152 152 150 150 155 165 172 171 176 187 196 205 227 247 253 254 252 262 264 260 264 266 263 264 266 259 255 249 248 249 243 260 282 282 268 261 264 270 273 279 280 277
155 153 152 157 162 169 175 177 180 186 201 215 222 239 251 257 259 256 253 258 257 257 259 259 262 263 265 261 254 255 256 259 256 272 282 274 266 264 268 269 270 273 276
157 158 164 172 174 177 179 183 192 198 214 232 239 246 252 257 259 261 258 257 258 258 256 254 255 253 258 262 263 259 258 261 262 269 279 279 272 263 261 270 277 265 268
160 165 174 172 169 171 181 193 203 214 229 239 251 261 261 260 256 256 253 252 254 259 259 255 254 263 269 275 275 263 259 263 268 274 280 283 279 270 266 267 278 279 268
163 169 165 163 168 180 193 201 214 235 246 249 254 260 267 267 280 287 286 262 255 257 264 263 263 274 281 286 288 289 286 281 278 277 281 280 281 275 275 276 281 284 284
160 161 163 167 177 193 199 207 227 241 246 258 261 260 263 272 286 292 293 289 266 260 262 266 272 272 287 277 282 286 285 283 282 281 279 279 281 278 277 277 273 274 276
156 161 166 171 186 196 205 225 239 242 248 256 261 263 266 275 290 296 298 293 272 264 260 260 264 269 270 278 267 265 261 265 270 274 266 269 269 269 264 269 275 277 273
160 168 173 176 188 202 223 239 243 245 256 256 259 265 268 278 290 297 298 282 270 267 263 262 267 266 276 287 286 278 277 271 277 278 278 280 282 287 290 288 284 285 286
168 171 172 177 190 212 229 242 242 244 256 266 269 265 265 271 285 294 296 280 274 274 268 262 274 281 286 290 286 279 283 282 274 277 279 281 282 283 287 281 275 278 280
151 153 167 186 203 220 233 240 252 261 270 272 274 273 268 271 284 290 294 288 272 276 275 269 264 285 291 291 291 285 286 292 285 281 281 276 272 267 266 261 253 257 269
141 155 184 207 221 225 237 257 261 264 273 277 279 281 270 270 280 286 290 291 291 286 280 274 274 288 290 293 295 293 297 302 297 291 284 279 274 271 268 263 260 255 254
142 178 217 237 244 241 242 257 267 262 263 273 275 280 281 268 271 285 291 294 294 290 279 283 289 294 298 298 294 296 301 299 290 285 280 277 269 268 271 273 271 264 263
169 216 234 247 261 259 249 244 250 255 260 268 272 278 281 278 268 267 269 280 285 286 284 284 289 293 292 291 293 295 286 272 278 277 279 278 277 274 273 270 274 277 279
204 235 248 248 253 261 256 245 251 241 245 262 265 266 279 284 280 288 291 285 278 274 284 277 273 276 273 272 274 273 270 276 281 274 277 280 281 280 277 269 264 267 269
228 247 247 251 256 258 269 280 269 267 276 277 279 281 281 284 293 295 297 297 299 297 296 285 281 279 278 280 282 282 278 276 275 276 277 276 279 279 280 276 265 262 267
231 247 250 252 257 261 264 272 285 285 277 279 282 286 287 290 294 295 296 297 297 298 292 280 279 279 276 275 275 275 277 276 274 274 276 275 276 275 274 274 270 264 265
242 257 260 250 253 257 260 263 269 281 289 282 278 283 289 292 294 296 298 301 295 289 269 271 273 271 269 271 272 273 275 278 274 271 271 273 272 273 273 270 265 260 264
250 253 254 252 253 255 259 263 267 272 278 284 283 281 287 292 294 293 296 288 283 281 274 271 269 268 266 266 269 270 272 275 273 270 270 269 269 270 270 267 264 267 267
256 271 277 266 257 260 262 267 272 274 278 279 281 283 286 287 282 283 276 269 274 276 275 274 271 266 264 264 265 267 270 271 269 265 265 266 265 265 268 267 263 260 255
258 271 282 282 268 269 270 271 271 272 275 278 280 284 291 289 286 284 281 276 272 274 274 273 271 267 264 261 262 265 267 270 267 262 262 262 262 263 262 261 261 257 252
260 264 265 268 271 272 274 270 271 274 276 280 282 286 291 288 282 280 279 279 274 269 268 269 270 266 261 259 263 267 268 268 266 262 261 261 258 259 259 256 256 254 246
264 271 273 272 271 279 284 278 275 276 277 278 282 284 283 278 277 277 278 277 271 270 270 269 272 270 262 259 258 260 265 268 265 261 263 265 261 257 254 252 250 249 244
266 271 275 278 279 277 278 279 277 278 279 280 281 281 279 277 276 278 279 276 274 274 273 271 271 270 266 266 264 261 260 263 262 258 255 256 256 255 251 249 247 244 241
271 275 279 281 282 283 283 284 283 282 282 283 283 283 281 280 280 280 277 274 274 275 273 272 272 272 269 267 267 265 270 274 276 271 256 251 250 246 245 245 245 241 235
279 281 283 283 282 282 283 284 284 283 282 282 282 281 280 280 280 279 277 275 274 274 274 274 270 267 267 269 269 272 276 277 276 275 269 258 250 245 240 242 239 237 234